DW6399 Weather Reports


time (UTC)temp
C
wind
direction
speed
KPH
gust
KPH
rain 1hr
cm
rain 24hr
cm
rain mn
cm
humidity
%
barometer
mb
20260506222703 -2 331 0.0 3.2 0.00 0.00 0.00 92 1011.2
20260506221803 -2 331 0.0 3.2 0.00 0.00 0.00 92 1011.1
20260506220903 -2 0 0.0 0.0 0.00 0.00 0.00 92 1011.2
20260506220024 -2 0 0.0 0.0 0.00 0.00 0.00 92 1011.1
20260506215403 -2 0 0.0 0.0 0.00 0.00 0.00 91 1011.0
20260506214503 -1 331 0.0 1.6 0.00 0.00 0.00 91 1011.0
20260506213603 -1 331 0.0 3.2 0.00 0.00 0.00 92 1010.9
20260506212703 -1 331 0.0 3.2 0.00 0.00 0.00 92 1011.0
20260506211803 -2 331 0.0 3.2 0.00 0.00 0.00 91 1010.9
20260506210903 -2 331 0.0 3.2 0.00 0.00 0.00 91 1010.9
20260506210004 -2 0 0.0 0.0 0.00 0.00 0.00 90 1010.8
20260506205403 -1 0 0.0 0.0 0.00 0.00 0.00 91 1010.8
20260506204503 -2 0 0.0 0.0 0.00 0.00 0.00 91 1010.8
20260506203603 -2 331 0.0 3.2 0.00 0.00 0.00 90 1010.8
20260506202703 -2 0 0.0 0.0 0.00 0.00 0.00 90 1010.9
20260506201803 -1 331 0.0 1.6 0.00 0.00 0.00 91 1010.8
20260506200924 -2 331 0.0 3.2 0.00 0.00 0.00 89 1010.7
20260506200003 -2 331 0.0 1.6 0.00 0.00 0.00 89 1010.7
20260506195403 -2 331 0.0 1.6 0.00 0.00 0.00 88 1010.7
20260506194503 -1 331 0.0 1.6 0.00 0.00 0.00 88 1010.7
20260506193603 -1 331 0.0 1.6 0.00 0.00 0.00 88 1010.7
20260506192724 -1 331 0.0 1.6 0.00 0.00 0.00 88 1010.7
20260506191803 -1 0 0.0 0.0 0.00 0.00 0.00 87 1010.7
20260506190903 0 0 0.0 0.0 0.00 0.00 0.00 85 1010.6
20260506190006 0 0 0.0 0.0 0.00 0.00 0.00 84 1010.5
20260506185426 0 0 0.0 0.0 0.00 0.00 0.00 84 1010.4
20260506184505 1 0 0.0 0.0 0.00 0.00 0.00 82 1010.4
20260506183605 1 0 0.0 0.0 0.00 0.00 0.00 81 1010.3
20260506182705 2 0 0.0 0.0 0.00 0.00 0.00 78 1010.2
20260506181804 3 331 3.2 8.0 0.00 0.00 0.00 78 1010.0
20260506180905 3 331 3.2 4.8 0.00 0.00 0.00 78 1009.9
20260506180006 3 334 6.4 9.7 0.00 0.00 0.00 78 1009.9
20260506175405 3 331 6.4 9.7 0.00 0.00 0.00 77 1009.8
20260506174526 4 330 4.8 8.0 0.00 0.00 0.00 76 1009.8
20260506173605 4 306 6.4 12.9 0.00 0.00 0.00 76 1009.8
20260506172705 4 317 6.4 12.9 0.00 0.00 0.00 77 1009.6
20260506171805 4 318 9.7 19.3 0.00 0.00 0.00 76 1009.6
20260506170904 4 306 9.7 17.7 0.00 0.00 0.00 77 1009.5
20260506170026 4 306 11.3 17.7 0.00 0.00 0.00 77 1009.4
20260506165405 3 317 9.7 16.1 0.00 0.00 0.00 77 1009.4
20260506164505 4 299 6.4 14.5 0.00 0.00 0.00 78 1009.3
20260506163604 3 299 9.7 17.7 0.00 0.00 0.00 78 1009.2
20260506162705 3 299 11.3 17.7 0.00 0.00 0.00 77 1009.3
20260506161805 4 307 11.3 19.3 0.00 0.00 0.00 77 1009.2
20260506160926 4 295 12.9 22.5 0.00 0.00 0.00 76 1009.1
20260506160005 4 300 14.5 22.5 0.00 0.00 0.00 77 1009.0
20260506155405 4 303 12.9 20.9 0.00 0.00 0.00 77 1008.9
20260506154504 4 302 11.3 19.3 0.00 0.00 0.00 77 1008.9
20260506153605 4 295 12.9 19.3 0.00 0.00 0.00 77 1008.8
20260506152705 4 286 12.9 24.1 0.00 0.00 0.00 77 1008.7
20260506151805 4 295 12.9 22.5 0.00 0.00 0.00 77 1008.6
20260506150905 4 297 12.9 20.9 0.00 0.00 0.00 77 1008.7
20260506150026 4 302 14.5 24.1 0.00 0.00 0.00 77 1008.6
20260506145404 4 301 16.1 25.7 0.00 0.00 0.00 77 1008.6
20260506144504 4 298 16.1 27.4 0.00 0.00 0.00 76 1008.5
20260506143605 5 277 14.5 27.4 0.00 0.00 0.00 76 1008.4
20260506142704 5 280 16.1 29.0 0.00 0.00 0.00 75 1008.4
20260506141804 4 273 16.1 35.4 0.00 0.00 0.00 75 1008.3
20260506140904 4 284 19.3 37.0 0.00 0.00 0.00 75 1008.2
20260506140026 4 282 19.3 37.0 0.00 0.00 0.00 75 1008.2
20260506135405 4 286 17.7 37.0 0.00 0.00 0.00 74 1008.2
20260506134504 4 288 14.5 33.8 0.00 0.00 0.00 74 1007.9
20260506133626 4 290 19.3 32.2 0.00 0.00 0.00 76 1007.9
20260506132704 4 291 17.7 32.2 0.00 0.00 0.00 75 1007.6
20260506131805 5 292 16.1 32.2 0.00 0.00 0.00 75 1007.6
20260506130904 5 281 14.5 25.7 0.00 0.00 0.00 77 1007.5
20260506130005 5 296 14.5 27.4 0.00 0.00 0.00 77 1007.3
20260506125405 5 296 14.5 25.7 0.00 0.00 0.00 78 1007.3
20260506124504 5 305 16.1 25.7 0.00 0.00 0.00 77 1007.2
20260506123626 5 301 12.9 27.4 0.00 0.00 0.00 77 1007.0
20260506122726 4 300 14.5 22.5 0.00 0.00 0.00 77 1007.0
20260506121804 4 307 11.3 22.5 0.00 0.00 0.00 78 1007.0
20260506120905 3 299 12.9 24.1 0.00 0.00 0.00 77 1006.8
20260506120005 3 300 12.9 20.9 0.00 0.00 0.00 76 1006.7
20260506115404 3 305 12.9 19.3 0.00 0.00 0.00 75 1006.8
20260506114504 3 286 14.5 25.7 0.00 0.00 0.00 72 1006.6
20260506113604 4 275 11.3 24.1 0.00 0.00 0.00 71 1006.5
20260506112705 3 279 12.9 25.7 0.00 0.00 0.00 71 1006.3
20260506111804 3 282 14.5 30.6 0.00 0.00 0.00 72 1006.2
20260506110904 3 276 12.9 24.1 0.00 0.00 0.00 72 1006.1
20260506110005 3 272 12.9 32.2 0.00 0.00 0.00 71 1006.0
20260506105405 3 276 12.9 32.2 0.00 0.00 0.00 71 1005.9
20260506104505 3 273 12.9 27.4 0.00 0.00 0.00 72 1005.8
20260506103604 3 280 16.1 32.2 0.00 0.00 0.00 72 1005.7
20260506102704 4 283 16.1 32.2 0.00 0.00 0.00 71 1005.5
20260506101805 4 285 14.5 29.0 0.00 0.00 0.00 71 1005.4
20260506100905 4 278 16.1 38.6 0.00 0.00 0.00 69 1005.2
20260506100025 5 280 14.5 29.0 0.00 0.00 0.00 69 1005.1
20260506095404 5 274 12.9 29.0 0.00 0.00 0.00 68 1004.9
20260506094504 5 283 16.1 32.2 0.00 0.00 0.00 67 1004.8
20260506093604 5 278 14.5 27.4 0.00 0.00 0.00 64 1004.6
20260506092704 5 273 11.3 25.7 0.00 0.00 0.00 62 1004.4
20260506091805 5 269 11.3 32.2 0.00 0.00 0.00 61 1004.3
20260506090904 6 275 8.0 24.1 0.00 0.00 0.00 58 1004.1
20260506090005 6 256 11.3 30.6 0.00 0.00 0.00 57 1003.9
20260506085425 6 262 12.9 48.3 0.00 0.00 0.00 56 1003.8
20260506084504 6 268 12.9 48.3 0.00 0.00 0.00 56 1003.7
20260506083605 6 278 12.9 25.7 0.00 0.00 0.00 57 1003.6
20260506082704 7 280 11.3 27.4 0.00 0.00 0.00 57 1003.4
20260506081804 6 261 11.3 32.2 0.00 0.00 0.00 59 1003.3
20260506080904 6 269 14.5 37.0 0.00 0.00 0.00 58 1003.2
20260506072725 6 273 14.5 29.0 0.00 0.00 0.00 60 1002.6
20260506071804 5 271 14.5 33.8 0.00 0.00 0.00 61 1002.6
20260506070904 5 276 14.5 30.6 0.00 0.00 0.00 62 1002.5
20260506061825 4 269 11.3 22.5 0.00 0.00 0.00 69 1002.1
20260506060925 3 280 14.5 29.0 0.00 0.00 0.00 68 1001.9
20260506050904 2 271 6.4 19.3 0.00 0.00 0.00 73 1001.3
20260506044504 2 265 6.4 20.9 0.00 0.00 0.00 75 1001.0
20260506043604 2 268 6.4 25.7 0.00 0.00 0.00 75 1001.0
20260506042704 2 260 6.4 19.3 0.00 0.00 0.00 76 1001.0
20260506041804 1 266 6.4 16.1 0.00 0.00 0.00 77 1000.5
20260506040904 1 270 4.8 14.5 0.00 0.00 0.00 78 1000.5
20260506040005 1 269 4.8 16.1 0.00 0.00 0.00 79 1000.1
20260506035404 0 272 4.8 14.5 0.00 0.00 0.00 81 999.1
20260506034504 0 267 3.2 11.3 0.00 0.00 0.00 82 1001.5
20260506033604 0 262 3.2 12.9 0.00 0.00 0.00 82 1000.8
20260506032704 0 259 4.8 12.9 0.00 0.00 0.00 82 1000.5
20260506031804 0 264 3.2 11.3 0.00 0.00 0.00 82 1000.5
20260506030904 -1 268 3.2 12.9 0.00 0.00 0.00 83 1000.4
20260506030005 -1 259 3.2 8.0 0.00 0.00 0.00 83 1000.4
20260506025425 -1 265 3.2 9.7 0.00 0.00 0.00 83 1000.3
20260506024504 -1 247 1.6 9.7 0.00 0.00 0.00 83 1000.2
20260506023604 -1 187 1.6 6.4 0.00 0.00 0.00 83 1000.2
20260506022704 -1 188 1.6 9.7 0.00 0.00 0.00 83 1000.1
20260506021825 -1 332 1.6 4.8 0.00 0.00 0.00 83 1000.0
20260506020904 -1 234 1.6 4.8 0.00 0.00 0.00 83 1000.1
20260506020005 -1 193 1.6 6.4 0.00 0.00 0.00 83 1000.1
20260506015404 -1 159 0.0 3.2 0.00 0.00 0.00 82 1000.0
20260506014504 -1 185 1.6 3.2 0.00 0.00 0.00 82 1000.0
20260506013625 -1 174 1.6 3.2 0.00 0.00 0.00 82 999.9
20260506012725 -1 177 1.6 3.2 0.00 0.00 0.00 82 999.8
20260506010904 -1 224 1.6 4.8 0.00 0.00 0.00 81 999.7
20260506003604 -1 260 1.6 6.4 0.00 0.00 0.00 80 999.5
20260506002704 -1 269 1.6 8.0 0.00 0.00 0.00 79 999.5
20260506001804 -1 266 1.6 6.4 0.00 0.00 0.00 78 999.4
20260506000904 0 259 1.6 8.0 0.00 0.00 0.00 78 999.4
20260506000032 0 261 1.6 8.0 0.00 0.03 0.00 78 999.4
20260505235404 0 288 3.2 8.0 0.00 0.03 0.00 78 999.4
20260505234504 0 277 1.6 6.4 0.00 0.03 0.00 78 999.3
20260505233604 0 271 3.2 12.9 0.00 0.03 0.00 78 999.3
20260505232704 0 260 1.6 9.7 0.00 0.03 0.00 79 999.3
20260505231804 0 200 1.6 4.8 0.00 0.03 0.00 78 999.3
20260505230904 0 212 1.6 4.8 0.00 0.03 0.00 77 999.3
20260505230025 0 247 1.6 6.4 0.00 0.03 0.00 77 999.2
20260505225404 0 278 1.6 6.4 0.00 0.05 0.00 77 999.2
20260505224504 0 248 1.6 6.4 0.00 0.05 0.00 77 999.2
20260505223604 0 263 3.2 11.3 0.00 0.05 0.00 76 999.3